ACA8397 CYYC-CYLW

Flight info

Callsign ACA8397
Flight time 0h 44m
Altitude 24000
Route STAMP2/35L BOTAG Q894 BINVO DCT ROBTI DCT NORIP NORIP5
Aircraft A320/M-SDE3FGHIRWY/LB1

Departure

Time 2026-04-29 00:55
Airport Calgary International Airport (CYYC)

Arrival

Time 2026-04-29 01:39
Airport Kelowna International Airport (CYLW)
Time Latitude Longitude Altitude Speed Heading
2026-04-29 00:34 51.12934 -114.01159 3543 ft 0 kts 310°
2026-04-29 00:43 51.12933 -114.01157 3546 ft 2 kts 310°
2026-04-29 00:43 51.12922 -114.01136 3542 ft 2 kts 310°
2026-04-29 00:44 51.12911 -114.01116 3540 ft 2 kts 310°
2026-04-29 00:44 51.12900 -114.01096 3544 ft 2 kts 302°
2026-04-29 00:44 51.12897 -114.01071 3547 ft 2 kts 253°
2026-04-29 00:44 51.12902 -114.01046 3546 ft 2 kts 233°
2026-04-29 00:45 51.12915 -114.01031 3541 ft 2 kts 199°
2026-04-29 00:45 51.12918 -114.01030 3542 ft 0 kts 204°
2026-04-29 00:46 51.12917 -114.01030 3541 ft 1 kts 204°
2026-04-29 00:47 51.12895 -114.01047 3540 ft 5 kts 207°
2026-04-29 00:47 51.12867 -114.01076 3541 ft 6 kts 218°
2026-04-29 00:47 51.12818 -114.01131 3545 ft 11 kts 235°
2026-04-29 00:47 51.12764 -114.01233 3541 ft 12 kts 221°
2026-04-29 00:48 51.12708 -114.01312 3545 ft 10 kts 221°
2026-04-29 00:48 51.12659 -114.01380 3544 ft 9 kts 221°
2026-04-29 00:48 51.12618 -114.01438 3544 ft 8 kts 221°
2026-04-29 00:48 51.12564 -114.01513 3543 ft 12 kts 221°
2026-04-29 00:49 51.12478 -114.01566 3546 ft 15 kts 181°
2026-04-29 00:49 51.12361 -114.01566 3547 ft 18 kts 178°
2026-04-29 00:49 51.12224 -114.01568 3550 ft 21 kts 181°
2026-04-29 00:49 51.12081 -114.01637 3552 ft 21 kts 209°
2026-04-29 00:50 51.11962 -114.01746 3552 ft 19 kts 210°
2026-04-29 00:50 51.11847 -114.01796 3554 ft 18 kts 180°
2026-04-29 00:50 51.11707 -114.01796 3553 ft 23 kts 180°
2026-04-29 00:50 51.11531 -114.01797 3553 ft 28 kts 180°
2026-04-29 00:51 51.11329 -114.01796 3555 ft 29 kts 180°
2026-04-29 00:51 51.11126 -114.01794 3556 ft 29 kts 180°
2026-04-29 00:51 51.10920 -114.01797 3557 ft 30 kts 179°
2026-04-29 00:51 51.10714 -114.01796 3560 ft 29 kts 180°
2026-04-29 00:52 51.10541 -114.01796 3559 ft 19 kts 180°
2026-04-29 00:52 51.10420 -114.01797 3563 ft 16 kts 181°
2026-04-29 00:52 51.10310 -114.01799 3561 ft 16 kts 180°
2026-04-29 00:52 51.10184 -114.01798 3564 ft 20 kts 180°
2026-04-29 00:53 51.10032 -114.01798 3565 ft 23 kts 180°
2026-04-29 00:53 51.09864 -114.01796 3561 ft 24 kts 179°
2026-04-29 00:53 51.09732 -114.01801 3565 ft 14 kts 193°
2026-04-29 00:53 51.09690 -114.01907 3564 ft 12 kts 270°
2026-04-29 00:54 51.09693 -114.02062 3568 ft 15 kts 270°
2026-04-29 00:54 51.09779 -114.02137 3569 ft 20 kts
2026-04-29 00:54 51.10033 -114.02137 3563 ft 69 kts
2026-04-29 00:54 51.10744 -114.02137 3559 ft 132 kts 360°
2026-04-29 00:55 51.11821 -114.02132 3680 ft 166 kts
2026-04-29 00:55 51.12961 -114.02152 4474 ft 164 kts 359°
2026-04-29 00:55 51.14108 -114.02236 5216 ft 165 kts
2026-04-29 00:55 51.15289 -114.02312 5668 ft 179 kts 360°
2026-04-29 00:56 51.16612 -114.02388 5952 ft 202 kts 358°
2026-04-29 00:56 51.18044 -114.02972 6222 ft 229 kts 330°
2026-04-29 00:56 51.19110 -114.04957 6597 ft 257 kts 292°
2026-04-29 00:56 51.19252 -114.07866 7212 ft 273 kts 262°
2026-04-29 00:57 51.18772 -114.10816 8157 ft 276 kts 254°
2026-04-29 00:57 51.18086 -114.13679 9144 ft 277 kts 250°
2026-04-29 00:57 51.17339 -114.16518 10101 ft 278 kts 249°
2026-04-29 00:57 51.16570 -114.19472 10483 ft 300 kts 250°
2026-04-29 00:58 51.15771 -114.22678 10733 ft 323 kts 251°
2026-04-29 00:58 51.14944 -114.26144 11034 ft 343 kts 252°
2026-04-29 00:58 51.14112 -114.29746 11663 ft 350 kts 252°
2026-04-29 00:58 51.13409 -114.32828 12280 ft 353 kts 253°
2026-04-29 00:59 51.12782 -114.35597 12831 ft 357 kts 253°
2026-04-29 00:59 51.11939 -114.39328 13524 ft 360 kts 254°
2026-04-29 00:59 51.11085 -114.43101 14198 ft 364 kts 252°
2026-04-29 01:00 51.10293 -114.46584 14760 ft 368 kts 252°
2026-04-29 01:00 51.10087 -114.47490 14911 ft 369 kts 252°
2026-04-29 01:00 51.09207 -114.51345 15525 ft 373 kts 252°
2026-04-29 01:00 51.08314 -114.55243 16148 ft 377 kts 252°
2026-04-29 01:01 51.07408 -114.59193 16768 ft 382 kts 252°
2026-04-29 01:01 51.06646 -114.63248 17362 ft 384 kts 258°
2026-04-29 01:01 51.06002 -114.67392 17982 ft 389 kts 258°
2026-04-29 01:01 51.05345 -114.71585 18572 ft 393 kts 258°
2026-04-29 01:02 51.04677 -114.75817 19113 ft 396 kts 258°
2026-04-29 01:02 51.04001 -114.80078 19650 ft 399 kts 258°
2026-04-29 01:02 51.03317 -114.84369 20188 ft 402 kts 258°
2026-04-29 01:02 51.02632 -114.88623 20687 ft 405 kts 258°
2026-04-29 01:03 51.01928 -114.92973 21146 ft 408 kts 258°
2026-04-29 01:03 51.01210 -114.97404 21632 ft 410 kts 259°
2026-04-29 01:03 51.00496 -115.01801 22145 ft 413 kts 259°
2026-04-29 01:03 50.99776 -115.06219 22615 ft 415 kts 259°
2026-04-29 01:04 50.99046 -115.10673 23069 ft 418 kts 259°
2026-04-29 01:04 50.98315 -115.15126 23492 ft 421 kts 259°
2026-04-29 01:04 50.97575 -115.19635 23888 ft 423 kts 259°
2026-04-29 01:04 50.96842 -115.24100 24091 ft 424 kts 259°
2026-04-29 01:05 50.96090 -115.28668 24136 ft 434 kts 259°
2026-04-29 01:05 50.95324 -115.33318 24125 ft 441 kts 258°
2026-04-29 01:05 50.94543 -115.38039 24132 ft 444 kts 258°
2026-04-29 01:05 50.93754 -115.42771 24129 ft 444 kts 258°
2026-04-29 01:06 50.92962 -115.47499 24130 ft 444 kts 258°
2026-04-29 01:06 50.92169 -115.52228 24121 ft 444 kts 258°
2026-04-29 01:06 50.91374 -115.56964 24123 ft 444 kts 258°
2026-04-29 01:06 50.90582 -115.61687 24122 ft 444 kts 258°
2026-04-29 01:07 50.89786 -115.66414 24120 ft 444 kts 258°
2026-04-29 01:07 50.88988 -115.71133 24111 ft 444 kts 258°
2026-04-29 01:07 50.88186 -115.75852 24095 ft 444 kts 258°
2026-04-29 01:07 50.87381 -115.80564 24094 ft 444 kts 258°
2026-04-29 01:08 50.86572 -115.85287 24090 ft 444 kts 258°
2026-04-29 01:08 50.85766 -115.90005 24094 ft 444 kts 258°
2026-04-29 01:08 50.84958 -115.94734 24095 ft 444 kts 258°
2026-04-29 01:08 50.84152 -115.99442 24096 ft 444 kts 258°
2026-04-29 01:09 50.83339 -116.04164 24096 ft 444 kts 258°
2026-04-29 01:09 50.82521 -116.08872 24098 ft 444 kts 257°
2026-04-29 01:09 50.81700 -116.13587 24099 ft 445 kts 257°
2026-04-29 01:09 50.80878 -116.18296 24099 ft 444 kts 257°
2026-04-29 01:10 50.80058 -116.23008 24083 ft 444 kts 257°
2026-04-29 01:10 50.79239 -116.27712 24086 ft 445 kts 257°
2026-04-29 01:10 50.78417 -116.32423 24087 ft 445 kts 257°
2026-04-29 01:10 50.77589 -116.37129 24090 ft 445 kts 257°
2026-04-29 01:11 50.76752 -116.41843 24102 ft 445 kts 257°
2026-04-29 01:11 50.75908 -116.46548 24100 ft 446 kts 256°
2026-04-29 01:11 50.74972 -116.51223 24102 ft 447 kts 254°
2026-04-29 01:11 50.73949 -116.55788 24109 ft 447 kts 252°
2026-04-29 01:12 50.72844 -116.60377 24114 ft 448 kts 251°
2026-04-29 01:12 50.71706 -116.64965 24098 ft 448 kts 251°
2026-04-29 01:12 50.70573 -116.69537 24106 ft 448 kts 251°
2026-04-29 01:12 50.69456 -116.74123 24106 ft 448 kts 251°
2026-04-29 01:13 50.68357 -116.78717 24102 ft 448 kts 252°
2026-04-29 01:13 50.67272 -116.83309 24102 ft 447 kts 252°
2026-04-29 01:13 50.66194 -116.87909 24110 ft 448 kts 252°
2026-04-29 01:13 50.65113 -116.92507 24099 ft 447 kts 252°
2026-04-29 01:14 50.64022 -116.97105 24112 ft 447 kts 252°
2026-04-29 01:14 50.62929 -117.01691 24111 ft 447 kts 252°
2026-04-29 01:14 50.61832 -117.06270 24089 ft 447 kts 251°
2026-04-29 01:14 50.60731 -117.10842 24087 ft 446 kts 251°
2026-04-29 01:15 50.59628 -117.15415 24089 ft 447 kts 252°
2026-04-29 01:15 50.58524 -117.19987 24093 ft 447 kts 251°
2026-04-29 01:15 50.57419 -117.24559 24096 ft 447 kts 251°
2026-04-29 01:15 50.56316 -117.29134 24100 ft 448 kts 252°
2026-04-29 01:16 50.55213 -117.33711 24095 ft 448 kts 252°
2026-04-29 01:16 50.54107 -117.38288 24097 ft 448 kts 251°
2026-04-29 01:16 50.53009 -117.42811 24099 ft 448 kts 252°
2026-04-29 01:16 50.51894 -117.47387 24096 ft 448 kts 251°
2026-04-29 01:17 50.50778 -117.51959 24094 ft 449 kts 251°
2026-04-29 01:17 50.49659 -117.56539 24094 ft 449 kts 251°
2026-04-29 01:17 50.48537 -117.61122 24095 ft 450 kts 251°
2026-04-29 01:17 50.47410 -117.65703 24095 ft 450 kts 251°
2026-04-29 01:18 50.46280 -117.70286 24094 ft 450 kts 251°
2026-04-29 01:18 50.44011 -117.79461 24098 ft 451 kts 251°
2026-04-29 01:18 50.42875 -117.84044 24101 ft 450 kts 251°
2026-04-29 01:19 50.41738 -117.88620 24090 ft 451 kts 251°
2026-04-29 01:19 50.40596 -117.93204 24092 ft 451 kts 251°
2026-04-29 01:19 50.39454 -117.97782 24094 ft 451 kts 251°
2026-04-29 01:19 50.38309 -118.02358 24098 ft 452 kts 251°
2026-04-29 01:20 50.37162 -118.06939 24105 ft 452 kts 251°
2026-04-29 01:20 50.36012 -118.11518 24109 ft 452 kts 251°
2026-04-29 01:20 50.34861 -118.16095 24111 ft 452 kts 251°
2026-04-29 01:20 50.33708 -118.20674 24117 ft 452 kts 251°
2026-04-29 01:21 50.32554 -118.25245 24124 ft 452 kts 250°
2026-04-29 01:21 50.31397 -118.29810 24123 ft 452 kts 251°
2026-04-29 01:21 50.30251 -118.34325 24123 ft 452 kts 251°
2026-04-29 01:21 50.29149 -118.38926 24127 ft 451 kts 253°
2026-04-29 01:22 50.28159 -118.43576 24129 ft 451 kts 255°
2026-04-29 01:22 50.27246 -118.48259 24130 ft 450 kts 256°
2026-04-29 01:22 50.26362 -118.52950 24130 ft 450 kts 256°
2026-04-29 01:22 50.25474 -118.57636 24131 ft 450 kts 256°
2026-04-29 01:23 50.24564 -118.62322 24126 ft 451 kts 255°
2026-04-29 01:23 50.23625 -118.67035 23869 ft 457 kts 255°
2026-04-29 01:23 50.22666 -118.71769 22715 ft 457 kts 254°
2026-04-29 01:23 50.21699 -118.76482 21788 ft 452 kts 254°
2026-04-29 01:24 50.20743 -118.81109 20942 ft 446 kts 254°
2026-04-29 01:24 50.19801 -118.85668 20084 ft 436 kts 253°
2026-04-29 01:24 50.18882 -118.90130 19274 ft 427 kts 254°
2026-04-29 01:24 50.17976 -118.94529 18478 ft 425 kts 254°
2026-04-29 01:25 50.17083 -118.98857 17530 ft 424 kts 254°
2026-04-29 01:25 50.16184 -119.03209 16788 ft 419 kts 253°
2026-04-29 01:25 50.15293 -119.07509 16040 ft 415 kts 253°
2026-04-29 01:25 50.14435 -119.11776 15327 ft 410 kts 255°
2026-04-29 01:26 50.13685 -119.16043 14621 ft 406 kts 256°
2026-04-29 01:26 50.13012 -119.20302 13948 ft 403 kts 258°
2026-04-29 01:26 50.12377 -119.24539 13240 ft 400 kts 257°
2026-04-29 01:26 50.11754 -119.28677 13038 ft 383 kts 257°
2026-04-29 01:27 50.11146 -119.32616 12950 ft 365 kts 258°
2026-04-29 01:27 50.10751 -119.35124 12890 ft 354 kts 257°
2026-04-29 01:27 50.10172 -119.38727 12752 ft 329 kts 257°
2026-04-29 01:27 50.09628 -119.42048 12612 ft 304 kts 257°
2026-04-29 01:28 50.09120 -119.45126 12482 ft 283 kts 258°
2026-04-29 01:28 50.08646 -119.47978 12362 ft 263 kts 257°
2026-04-29 01:28 50.08202 -119.50652 12250 ft 250 kts 257°
2026-04-29 01:28 50.07770 -119.53275 12142 ft 248 kts 257°
2026-04-29 01:29 50.07346 -119.55866 12038 ft 246 kts 258°
2026-04-29 01:29 50.06762 -119.58365 11925 ft 248 kts 242°
2026-04-29 01:29 50.05671 -119.60440 11726 ft 252 kts 220°
2026-04-29 01:29 50.04160 -119.61842 11342 ft 256 kts 206°
2026-04-29 01:30 50.02544 -119.63017 10978 ft 257 kts 206°
2026-04-29 01:30 50.00921 -119.64215 10625 ft 259 kts 206°
2026-04-29 01:30 49.99305 -119.65420 10266 ft 256 kts 208°
2026-04-29 01:30 49.97702 -119.66613 9905 ft 255 kts 205°
2026-04-29 01:31 49.95998 -119.67316 9534 ft 254 kts 186°
2026-04-29 01:31 49.94252 -119.67159 9180 ft 250 kts 171°
2026-04-29 01:31 49.92554 -119.66720 8847 ft 245 kts 171°
2026-04-29 01:31 49.90888 -119.66299 8518 ft 240 kts 172°
2026-04-29 01:32 49.89274 -119.65894 8205 ft 237 kts 171°
2026-04-29 01:32 49.87651 -119.65490 7881 ft 235 kts 171°
2026-04-29 01:32 49.86053 -119.65094 7601 ft 231 kts 171°
2026-04-29 01:32 49.84481 -119.64703 7319 ft 226 kts 171°
2026-04-29 01:33 49.82943 -119.64317 7080 ft 222 kts 171°
2026-04-29 01:33 49.81494 -119.63622 6776 ft 215 kts 153°
2026-04-29 01:33 49.80285 -119.62333 6511 ft 208 kts 135°
2026-04-29 01:33 49.79390 -119.60604 6248 ft 206 kts 117°
2026-04-29 01:34 49.78852 -119.58580 5988 ft 202 kts 102°
2026-04-29 01:34 49.78703 -119.56447 5741 ft 198 kts 85°
2026-04-29 01:34 49.78932 -119.54375 5499 ft 194 kts 69°
2026-04-29 01:34 49.79497 -119.52509 5256 ft 191 kts 53°
2026-04-29 01:35 49.80340 -119.50966 5023 ft 185 kts 42°
2026-04-29 01:35 49.81248 -119.49588 4795 ft 180 kts 42°
2026-04-29 01:35 49.82128 -119.48237 4584 ft 176 kts 41°
2026-04-29 01:35 49.82983 -119.46879 4373 ft 177 kts 46°
2026-04-29 01:36 49.83678 -119.45295 4164 ft 179 kts 58°
2026-04-29 01:36 49.84147 -119.43511 3949 ft 179 kts 70°
2026-04-29 01:36 49.84568 -119.41734 3713 ft 177 kts 62°
2026-04-29 01:36 49.85187 -119.40129 3462 ft 170 kts 51°
2026-04-29 01:37 49.85958 -119.38767 3222 ft 167 kts 41°
2026-04-29 01:37 49.86880 -119.37716 3017 ft 162 kts 27°
2026-04-29 01:37 49.87916 -119.37081 2781 ft 154 kts 14°
2026-04-29 01:37 49.88949 -119.36875 2566 ft 147 kts 360°
2026-04-29 01:38 49.89958 -119.36987 2370 ft 144 kts 354°
2026-04-29 01:38 49.90946 -119.37127 2171 ft 142 kts 354°
2026-04-29 01:38 49.91930 -119.37268 1966 ft 142 kts 354°
2026-04-29 01:38 49.92887 -119.37389 1788 ft 133 kts 356°
2026-04-29 01:39 49.93770 -119.37511 1568 ft 123 kts 353°
2026-04-29 01:39 49.94610 -119.37640 1411 ft 121 kts 353°
2026-04-29 01:39 49.95363 -119.37743 1374 ft 91 kts 354°
2026-04-29 01:39 49.95697 -119.37791 1380 ft 19 kts 354°
2026-04-29 01:40 49.95790 -119.37832 1386 ft 11 kts 310°
2026-04-29 01:40 49.95785 -119.37930 1384 ft 8 kts 225°
2026-04-29 01:40 49.95722 -119.37936 1384 ft 11 kts 176°
2026-04-29 01:40 49.95643 -119.37924 1382 ft 12 kts 175°
2026-04-29 01:41 49.95556 -119.37912 1380 ft 13 kts 175°
2026-04-29 01:41 49.95462 -119.37899 1380 ft 14 kts 175°
2026-04-29 01:41 49.95364 -119.37886 1377 ft 14 kts 174°
2026-04-29 01:41 49.95266 -119.37872 1374 ft 14 kts 175°
2026-04-29 01:42 49.95179 -119.37860 1374 ft 8 kts 175°
2026-04-29 01:42 49.95152 -119.37912 1375 ft 6 kts 291°
2026-04-29 01:42 49.95178 -119.37976 1374 ft 7 kts 297°
2026-04-29 01:42 49.95193 -119.38025 1374 ft 0 kts 297°